Satellite: HRBE Catalog number: 37855 Epoch time: 15042.11658249 Element set: 999 Inclination: 101.7128 deg RA of node: 193.1981 deg Eccentricity: 0.0201561 Arg of perigee: 081.2881 deg Mean anomaly: 281.1097 deg Mean motion: 14.94922573 rev/day Decay rate: 1.1445e-04 rev/day^2 Epoch rev: 17830 Checksum: 313
Satellite: RS-39 Catalog number: 38051 Epoch time: 14288.65876392 Element set: 999 Inclination: 051.5964 deg RA of node: 324.1908 deg Eccentricity: 0.0006422 Arg of perigee: 269.6897 deg Mean anomaly: 186.8903 deg Mean motion: 16.43533377 rev/day Decay rate: 7.0201582e-01 rev/day^2 Epoch rev: 15308 Checksum: 367
Satellite: E-STAR Catalog number: 38079 Epoch time: 15016.13455217 Element set: 999 Inclination: 069.3967 deg RA of node: 125.0648 deg Eccentricity: 0.0013168 Arg of perigee: 047.0341 deg Mean anomaly: 316.5109 deg Mean motion: 16.44007688 rev/day Decay rate: 1.7990388e-01 rev/day^2 Epoch rev: 15619 Checksum: 340
Satellite: GOLIAT Catalog number: 38085 Epoch time: 15043.43017945 Element set: 999 Inclination: 069.4082 deg RA of node: 061.3592 deg Eccentricity: 0.0061801 Arg of perigee: 356.2382 deg Mean anomaly: 003.8680 deg Mean motion: 16.09806563 rev/day Decay rate: 1.727158e-02 rev/day^2 Epoch rev: 16009 Checksum: 318
Satellite: HORYU-2 Catalog number: 38340 Epoch time: 15042.33210898 Element set: 999 Inclination: 098.2978 deg RA of node: 009.1839 deg Eccentricity: 0.0013145 Arg of perigee: 132.5803 deg Mean anomaly: 227.6516 deg Mean motion: 14.73727035 rev/day Decay rate: 2.985e-05 rev/day^2 Epoch rev: 14699 Checksum: 332
Satellite: RS-40 Catalog number: 38735 Epoch time: 15043.47031897 Element set: 999 Inclination: 082.4789 deg RA of node: 137.7469 deg Eccentricity: 0.0017649 Arg of perigee: 093.9643 deg Mean anomaly: 266.3452 deg Mean motion: 12.42567314 rev/day Decay rate: 4.0e-07 rev/day^2 Epoch rev: 11542 Checksum: 336
Satellite: PROITERES Catalog number: 38756 Epoch time: 15043.43743768 Element set: 999 Inclination: 098.2191 deg RA of node: 140.6659 deg Eccentricity: 0.0011886 Arg of perigee: 341.8419 deg Mean anomaly: 018.2363 deg Mean motion: 14.75549407 rev/day Decay rate: 1.580e-05 rev/day^2 Epoch rev: 13060 Checksum: 327
Satellite: BEESAT-3 Catalog number: 39134 Epoch time: 15042.20590548 Element set: 999 Inclination: 064.8737 deg RA of node: 099.8965 deg Eccentricity: 0.0034992 Arg of perigee: 270.2614 deg Mean anomaly: 089.4498 deg Mean motion: 15.09772353 rev/day Decay rate: 1.2365e-04 rev/day^2 Epoch rev: 9966 Checksum: 364
Satellite: BEESAT-2 Catalog number: 39136 Epoch time: 15043.20093729 Element set: 999 Inclination: 064.8745 deg RA of node: 098.2222 deg Eccentricity: 0.0035559 Arg of perigee: 269.8606 deg Mean anomaly: 089.8441 deg Mean motion: 15.08549826 rev/day Decay rate: 9.077e-05 rev/day^2 Epoch rev: 9979 Checksum: 367
Satellite: LO-75 Catalog number: 39382 Epoch time: 14295.69194059 Element set: 999 Inclination: 040.4713 deg RA of node: 030.2705 deg Eccentricity: 0.0002289 Arg of perigee: 341.7175 deg Mean anomaly: 018.4586 deg Mean motion: 16.19795749 rev/day Decay rate: 7.301741e-02 rev/day^2 Epoch rev: 47082 Checksum: 353
Satellite: ZACUBE-1 Catalog number: 39417 Epoch time: 15043.14522480 Element set: 999 Inclination: 097.7462 deg RA of node: 110.2997 deg Eccentricity: 0.0061293 Arg of perigee: 182.4588 deg Mean anomaly: 177.6331 deg Mean motion: 14.79203092 rev/day Decay rate: 2.243e-05 rev/day^2 Epoch rev: 6614 Checksum: 314
Satellite: TRITON-1 Catalog number: 39427 Epoch time: 15043.13993841 Element set: 999 Inclination: 097.7331 deg RA of node: 101.1693 deg Eccentricity: 0.0116285 Arg of perigee: 205.5797 deg Mean anomaly: 153.9627 deg Mean motion: 14.66247736 rev/day Decay rate: 1.715e-05 rev/day^2 Epoch rev: 6553 Checksum: 334
Satellite: DELFIN3XT Catalog number: 39428 Epoch time: 15043.16312940 Element set: 999 Inclination: 097.7330 deg RA of node: 099.7503 deg Eccentricity: 0.0125412 Arg of perigee: 209.6076 deg Mean anomaly: 149.7989 deg Mean motion: 14.64709204 rev/day Decay rate: 3.063e-05 rev/day^2 Epoch rev: 6543 Checksum: 324
Satellite: GOMX-1 Catalog number: 39430 Epoch time: 15043.36592252 Element set: 999 Inclination: 097.7255 deg RA of node: 095.4077 deg Eccentricity: 0.0153844 Arg of perigee: 222.5683 deg Mean anomaly: 136.3508 deg Mean motion: 14.57663068 rev/day Decay rate: 2.415e-05 rev/day^2 Epoch rev: 6519 Checksum: 328
Satellite: MO-76 Catalog number: 39436 Epoch time: 15043.14718126 Element set: 999 Inclination: 097.7527 deg RA of node: 119.1227 deg Eccentricity: 0.0023092 Arg of perigee: 166.2608 deg Mean anomaly: 193.9249 deg Mean motion: 15.00048233 rev/day Decay rate: 2.9119e-04 rev/day^2 Epoch rev: 6670 Checksum: 325
Satellite: LO-74 Catalog number: 39440 Epoch time: 15042.23661107 Element set: 999 Inclination: 097.7415 deg RA of node: 105.8162 deg Eccentricity: 0.0082780 Arg of perigee: 193.7753 deg Mean anomaly: 166.1198 deg Mean motion: 14.74055467 rev/day Decay rate: 2.711e-05 rev/day^2 Epoch rev: 6577 Checksum: 332
Satellite: PUCPSAT-1 Catalog number: 39442 Epoch time: 15043.16171757 Element set: 999 Inclination: 097.7530 deg RA of node: 116.0377 deg Eccentricity: 0.0033970 Arg of perigee: 173.6359 deg Mean anomaly: 186.5296 deg Mean motion: 14.87778170 rev/day Decay rate: 3.387e-05 rev/day^2 Epoch rev: 6527 Checksum: 347
Satellite: SHINAISAT Catalog number: 39572 Epoch time: 14328.13084988 Element set: 999 Inclination: 064.9728 deg RA of node: 197.0096 deg Eccentricity: 0.0013534 Arg of perigee: 259.7861 deg Mean anomaly: 100.1802 deg Mean motion: 16.45181032 rev/day Decay rate: 2.8848087e-01 rev/day^2 Epoch rev: 4240 Checksum: 336
Satellite: TEIKYOSAT Catalog number: 39576 Epoch time: 14297.85867254 Element set: 999 Inclination: 064.9818 deg RA of node: 300.5833 deg Eccentricity: 0.0008491 Arg of perigee: 317.3597 deg Mean anomaly: 044.3862 deg Mean motion: 16.45008906 rev/day Decay rate: 9.345816e-02 rev/day^2 Epoch rev: 3769 Checksum: 372
Satellite: CO-77 Catalog number: 39577 Epoch time: 14244.78324653 Element set: 999 Inclination: 064.9920 deg RA of node: 123.7668 deg Eccentricity: 0.0014904 Arg of perigee: 269.7208 deg Mean anomaly: 091.1897 deg Mean motion: 16.43552757 rev/day Decay rate: 1.0543803e-01 rev/day^2 Epoch rev: 2938 Checksum: 371
Satellite: SPROUT Catalog number: 39770 Epoch time: 15043.34485149 Element set: 999 Inclination: 097.8682 deg RA of node: 141.9321 deg Eccentricity: 0.0008864 Arg of perigee: 247.5034 deg Mean anomaly: 112.5265 deg Mean motion: 14.83419218 rev/day Decay rate: 1.958e-05 rev/day^2 Epoch rev: 3912 Checksum: 325
Satellite: POPSAT-HIP1 Catalog number: 40028 Epoch time: 15043.40697211 Element set: 999 Inclination: 097.9676 deg RA of node: 303.5082 deg Eccentricity: 0.0013374 Arg of perigee: 228.5560 deg Mean anomaly: 131.4480 deg Mean motion: 14.86376495 rev/day Decay rate: 3.832e-05 rev/day^2 Epoch rev: 3524 Checksum: 309
Satellite: EO-80 Catalog number: 40032 Epoch time: 15043.44570526 Element set: 999 Inclination: 097.9618 deg RA of node: 303.3418 deg Eccentricity: 0.0011627 Arg of perigee: 223.0209 deg Mean anomaly: 137.0058 deg Mean motion: 14.86113701 rev/day Decay rate: 4.016e-05 rev/day^2 Epoch rev: 3525 Checksum: 278
Satellite: VELOX-1 Catalog number: 40057 Epoch time: 15043.42643304 Element set: 999 Inclination: 098.2265 deg RA of node: 119.4843 deg Eccentricity: 0.0010554 Arg of perigee: 278.7459 deg Mean anomaly: 081.2543 deg Mean motion: 14.75195152 rev/day Decay rate: 3.702e-05 rev/day^2 Epoch rev: 3348 Checksum: 304
Satellite: DAURIA DX 1 Catalog number: 40071 Epoch time: 15043.41164547 Element set: 999 Inclination: 098.3717 deg RA of node: 109.6323 deg Eccentricity: 0.0007643 Arg of perigee: 282.6959 deg Mean anomaly: 077.3402 deg Mean motion: 14.80087852 rev/day Decay rate: 1.741e-05 rev/day^2 Epoch rev: 3233 Checksum: 303
Satellite: UKUBE-1 Catalog number: 40074 Epoch time: 15043.45119847 Element set: 999 Inclination: 098.3735 deg RA of node: 110.0951 deg Eccentricity: 0.0003999 Arg of perigee: 294.9981 deg Mean anomaly: 065.0812 deg Mean motion: 14.81553783 rev/day Decay rate: 3.663e-05 rev/day^2 Epoch rev: 3236 Checksum: 327
Satellite: CHASQUI-1 Catalog number: 40117 Epoch time: 15014.73322295 Element set: 999 Inclination: 051.6189 deg RA of node: 112.4445 deg Eccentricity: 0.0004239 Arg of perigee: 337.2783 deg Mean anomaly: 022.7551 deg Mean motion: 16.34635278 rev/day Decay rate: 7.508583e-02 rev/day^2 Epoch rev: 2336 Checksum: 310
Satellite: HODOYOSHI-1 Catalog number: 40299 Epoch time: 15043.48723703 Element set: 999 Inclination: 097.4643 deg RA of node: 126.6211 deg Eccentricity: 0.0012771 Arg of perigee: 203.2558 deg Mean anomaly: 213.6380 deg Mean motion: 15.18118980 rev/day Decay rate: 6.917e-05 rev/day^2 Epoch rev: 1489 Checksum: 313
Satellite: CHUBUSAT-1 Catalog number: 40300 Epoch time: 15043.48852117 Element set: 999 Inclination: 097.4618 deg RA of node: 126.2890 deg Eccentricity: 0.0022344 Arg of perigee: 205.2987 deg Mean anomaly: 211.2365 deg Mean motion: 15.16182597 rev/day Decay rate: 8.654e-05 rev/day^2 Epoch rev: 1487 Checksum: 312
Satellite: QSAT-EOS Catalog number: 40301 Epoch time: 15043.44884462 Element set: 999 Inclination: 097.4586 deg RA of node: 125.8815 deg Eccentricity: 0.0033487 Arg of perigee: 206.3221 deg Mean anomaly: 282.7833 deg Mean motion: 15.14420343 rev/day Decay rate: 1.5077e-04 rev/day^2 Epoch rev: 1484 Checksum: 303
Satellite: TSUBAME Catalog number: 40302 Epoch time: 15043.01714267 Element set: 999 Inclination: 097.4562 deg RA of node: 125.0498 deg Eccentricity: 0.0043904 Arg of perigee: 208.8105 deg Mean anomaly: 277.1010 deg Mean motion: 15.11459397 rev/day Decay rate: 7.885e-05 rev/day^2 Epoch rev: 1474 Checksum: 298
